^^

..:: Storico WU ::..




Lo storico viene creato da WUnderground con i dati che la stazione Meteomincio invia al loro server. L' aggiornamento viene fatto ogni 5 minuti circa, tuttavia possono esserci intervalli pił ampi a causa di errori, interruzioni di servizio o problemi nell' invio tramite FTP.


Storico stazione MeteoMincio
Giorno Sommario per Dicembre 29, 2022 Unità:  Inglese    Metrico   Entrambi
Giorno Settimana Mese Anno
  Max: Min: Media:
Temperatura: 48.2 °F 46.4 °F 47.1 °F
Dew Point: 48.2 °F 44.6 °F 45.7 °F
Umidità: 99% 93% 96%
Velocità vento: 6.2mph 0mph 2.2mph
Raffica: 8.1mph - -
Direzione- - South
Pressione: 30.2 in 30.2 in -
Precipitazioni: 0.21 in    
 
 
Tabulato Dati per Dicembre 29, 2022
Ora Temperatura Dew Point Pressione Direzione Velocità vento Raffica Umidità Intensità pioggia (oraria) Info solare Situazione
00:04 46.4 °F 44.6 °F 30.2 in SW 1.2 mph 2.5 mph 96% 0 in 0.00 W/m2 unknown
00:09 46.4 °F 44.6 °F 30.2 in WSW 0.6 mph 1.9 mph 96% 0 in 0.00 W/m2 unknown
00:14 46.4 °F 44.6 °F 30.2 in WSW 1.9 mph 2.5 mph 96% 0 in 0.00 W/m2 unknown
00:19 46.4 °F 44.6 °F 30.2 in WNW 1.9 mph 2.5 mph 96% 0 in 0.00 W/m2 unknown
00:24 46.4 °F 44.6 °F 30.2 in SW 3.1 mph 3.7 mph 96% 0 in 0.00 W/m2 unknown
00:29 46.4 °F 44.6 °F 30.2 in SSW 1.9 mph 3.7 mph 96% 0 in 0.00 W/m2 unknown
00:34 46.4 °F 44.6 °F 30.2 in SSW 0.6 mph 3.1 mph 96% 0 in 0.00 W/m2 unknown
00:39 46.4 °F 44.6 °F 30.2 in SSW 1.2 mph 1.2 mph 96% 0 in 0.00 W/m2 unknown
00:44 46.4 °F 44.6 °F 30.2 in SSW 0.6 mph 1.2 mph 96% 0 in 0.00 W/m2 unknown
00:49 46.4 °F 44.6 °F 30.2 in SSW 1.9 mph 2.5 mph 96% 0 in 0.00 W/m2 unknown
00:54 46.4 °F 44.6 °F 30.2 in SSW 1.2 mph 2.5 mph 96% 0 in 0.00 W/m2 unknown
00:59 46.4 °F 44.6 °F 30.2 in SSW 1.2 mph 2.5 mph 96% 0 in 0.00 W/m2 unknown
01:04 46.4 °F 44.6 °F 30.2 in SSW 1.9 mph 2.5 mph 96% 0 in 0.00 W/m2 unknown
01:09 46.4 °F 44.6 °F 30.2 in SW 1.2 mph 2.5 mph 96% 0 in 0.00 W/m2 unknown
01:14 46.4 °F 44.6 °F 30.2 in WSW 1.9 mph 2.5 mph 96% 0 in 0.00 W/m2 unknown
01:19 46.4 °F 44.6 °F 30.2 in WSW 1.9 mph 3.7 mph 96% 0 in 0.00 W/m2 unknown
01:24 46.4 °F 44.6 °F 30.2 in WSW 1.9 mph 3.7 mph 96% 0 in 0.00 W/m2 unknown
01:29 46.4 °F 44.6 °F 30.2 in SW 1.2 mph 2.5 mph 96% 0 in 0.00 W/m2 unknown
01:34 46.4 °F 44.6 °F 30.2 in SW 1.2 mph 2.5 mph 96% 0 in 0.00 W/m2 unknown
01:39 46.4 °F 44.6 °F 30.2 in WSW 1.2 mph 2.5 mph 96% 0.01 in 0.00 W/m2 unknown
01:44 46.4 °F 44.6 °F 30.2 in West 1.9 mph 2.5 mph 96% 0.01 in 0.00 W/m2 unknown
01:49 46.4 °F 44.6 °F 30.2 in West 1.9 mph 3.7 mph 96% 0.01 in 0.00 W/m2 unknown
01:54 46.4 °F 44.6 °F 30.2 in West 2.5 mph 3.7 mph 96% 0.01 in 0.00 W/m2 unknown
01:59 46.4 °F 44.6 °F 30.2 in West 1.2 mph 3.1 mph 96% 0.01 in 0.00 W/m2 unknown
02:04 46.4 °F 44.6 °F 30.2 in West 1.2 mph 2.5 mph 96% 0.01 in 0.00 W/m2 unknown
02:09 46.4 °F 44.6 °F 30.2 in West 1.2 mph 2.5 mph 96% 0.01 in 0.00 W/m2 unknown
02:14 46.4 °F 44.6 °F 30.2 in West 1.2 mph 2.5 mph 96% 0.01 in 0.00 W/m2 unknown
02:19 46.4 °F 44.6 °F 30.2 in West 2.5 mph 3.7 mph 96% 0.02 in 0.00 W/m2 unknown
02:24 46.4 °F 44.6 °F 30.2 in WSW 2.5 mph 3.7 mph 96% 0.02 in 0.00 W/m2 unknown
02:29 46.4 °F 44.6 °F 30.2 in SW 1.2 mph 3.7 mph 96% 0.02 in 0.00 W/m2 unknown
02:34 46.4 °F 44.6 °F 30.2 in WSW 1.9 mph 2.5 mph 96% 0.02 in 0.00 W/m2 unknown
02:39 46.4 °F 44.6 °F 30.2 in West 1.9 mph 2.5 mph 96% 0.02 in 0.00 W/m2 unknown
02:44 46.4 °F 44.6 °F 30.2 in West 1.2 mph 2.5 mph 96% 0.02 in 0.00 W/m2 unknown
02:49 46.4 °F 44.6 °F 30.2 in West 1.2 mph 2.5 mph 96% 0.02 in 0.00 W/m2 unknown
02:54 46.4 °F 44.6 °F 30.2 in West 2.5 mph 3.7 mph 96% 0.02 in 0.00 W/m2 unknown
02:59 46.4 °F 44.6 °F 30.2 in West 1.9 mph 3.7 mph 96% 0.01 in 0.00 W/m2 unknown
03:04 46.4 °F 44.6 °F 30.2 in NW 1.9 mph 2.5 mph 96% 0.01 in 0.00 W/m2 unknown
03:09 46.4 °F 44.6 °F 30.2 in WNW 3.1 mph 3.7 mph 96% 0.01 in 0.00 W/m2 unknown
03:14 46.4 °F 44.6 °F 30.2 in West 3.7 mph 6.2 mph 96% 0.01 in 0.00 W/m2 unknown
03:19 46.4 °F 44.6 °F 30.2 in West 4.3 mph 6.2 mph 96% 0.01 in 0.00 W/m2 unknown
03:24 46.4 °F 44.6 °F 30.2 in West 1.9 mph 6.2 mph 96% 0.01 in 0.00 W/m2 unknown
03:29 46.4 °F 44.6 °F 30.2 in West 1.2 mph 2.5 mph 96% 0.02 in 0.00 W/m2 unknown
03:34 46.4 °F 44.6 °F 30.2 in West 1.2 mph 2.5 mph 96% 0.02 in 0.00 W/m2 unknown
03:39 46.4 °F 44.6 °F 30.2 in Calm   1.9 mph 96% 0.01 in 0.00 W/m2 unknown
03:44 46.4 °F 44.6 °F 30.2 in Calm   1.2 mph 96% 0.01 in 0.00 W/m2 unknown
03:49 46.4 °F 44.6 °F 30.2 in Calm     96% 0.01 in 0.00 W/m2 unknown
03:54 46.4 °F 44.6 °F 30.2 in Calm     96% 0.01 in 0.00 W/m2 unknown
03:59 46.4 °F 44.6 °F 30.2 in Calm     96% 0.01 in 0.00 W/m2 unknown
04:04 46.4 °F 44.6 °F 30.2 in Calm     96% 0.01 in 0.00 W/m2 unknown
04:09 46.4 °F 44.6 °F 30.2 in Calm     96% 0.01 in 0.00 W/m2 unknown
04:14 46.4 °F 44.6 °F 30.2 in Calm     96% 0.01 in 0.00 W/m2 unknown
04:19 46.4 °F 44.6 °F 30.2 in Calm     96% 0.01 in 0.00 W/m2 unknown
04:24 46.4 °F 44.6 °F 30.2 in Calm     96% 0.01 in 0.00 W/m2 unknown
04:29 46.4 °F 44.6 °F 30.2 in Calm     96% 0.01 in 0.00 W/m2 unknown
04:34 46.4 °F 44.6 °F 30.2 in Calm     96% 0.01 in 0.00 W/m2 unknown
04:39 46.4 °F 44.6 °F 30.2 in Calm     96% 0.01 in 0.00 W/m2 unknown
04:44 46.4 °F 44.6 °F 30.2 in Calm     96% 0.01 in 0.00 W/m2 unknown
04:49 46.4 °F 44.6 °F 30.2 in Calm     96% 0 in 0.00 W/m2 unknown
04:54 46.4 °F 44.6 °F 30.2 in Calm     96% 0 in 0.00 W/m2 unknown
04:59 46.4 °F 44.6 °F 30.2 in Calm     96% 0.01 in 0.00 W/m2 unknown
05:04 46.4 °F 44.6 °F 30.2 in Calm     96% 0.01 in 0.00 W/m2 unknown
05:09 46.4 °F 44.6 °F 30.2 in Calm     96% 0.01 in 0.00 W/m2 unknown
05:14 46.4 °F 44.6 °F 30.2 in WNW 2.5 mph 3.7 mph 97% 0.01 in 0.00 W/m2 unknown
05:19 46.4 °F 44.6 °F 30.2 in NE 2.5 mph 3.7 mph 97% 0.01 in 0.00 W/m2 unknown
05:24 46.4 °F 44.6 °F 30.2 in NW 2.5 mph 3.7 mph 97% 0.01 in 0.00 W/m2 unknown
05:29 46.4 °F 44.6 °F 30.2 in WNW 2.5 mph 3.7 mph 97% 0.01 in 0.00 W/m2 unknown
05:34 46.4 °F 44.6 °F 30.2 in NNW 1.9 mph 2.5 mph 97% 0.02 in 0.00 W/m2 unknown
05:39 46.4 °F 44.6 °F 30.2 in North 1.9 mph 2.5 mph 97% 0.02 in 0.00 W/m2 unknown
05:44 46.4 °F 44.6 °F 30.2 in NW 1.9 mph 3.7 mph 97% 0.02 in 0.00 W/m2 unknown
05:49 46.4 °F 44.6 °F 30.2 in NW 1.9 mph 2.5 mph 97% 0.02 in 0.00 W/m2 unknown
05:54 46.4 °F 44.6 °F 30.2 in NNW 2.5 mph 3.7 mph 97% 0.02 in 0.00 W/m2 unknown
05:59 46.4 °F 44.6 °F 30.2 in NNW 2.5 mph 3.7 mph 97% 0.02 in 0.00 W/m2 unknown
06:04 46.4 °F 44.6 °F 30.2 in NNW 1.9 mph 3.7 mph 97% 0.02 in 0.00 W/m2 unknown
06:09 46.4 °F 44.6 °F 30.2 in NNW 1.9 mph 3.7 mph 97% 0.02 in 0.00 W/m2 unknown
06:14 46.4 °F 44.6 °F 30.2 in NNW 1.2 mph 3.1 mph 97% 0.01 in 0.00 W/m2 unknown
06:19 46.4 °F 44.6 °F 30.2 in NNW 0.6 mph 1.9 mph 97% 0.01 in 0.00 W/m2 unknown
06:24 46.4 °F 44.6 °F 30.2 in Calm   1.2 mph 97% 0.01 in 0.00 W/m2 unknown
06:29 46.4 °F 44.6 °F 30.2 in NNW 0.6 mph 1.2 mph 97% 0.01 in 0.00 W/m2 unknown
06:34 46.4 °F 44.6 °F 30.2 in NNW 0.6 mph 1.2 mph 97% 0.01 in 0.00 W/m2 unknown
06:39 46.4 °F 44.6 °F 30.2 in NNW 0.6 mph 1.2 mph 97% 0.01 in 0.00 W/m2 unknown
06:44 46.4 °F 44.6 °F 30.2 in NNW 0.6 mph 1.2 mph 97% 0.01 in 0.00 W/m2 unknown
06:49 46.4 °F 44.6 °F 30.2 in Calm   1.2 mph 97% 0.01 in 0.00 W/m2 unknown
06:54 46.4 °F 44.6 °F 30.2 in NNW 1.2 mph 2.5 mph 97% 0 in 0.00 W/m2 unknown
06:59 46.4 °F 44.6 °F 30.2 in Calm   1.9 mph 97% 0 in 0.00 W/m2 unknown
07:04 46.4 °F 44.6 °F 30.2 in NNW 0.6 mph 1.2 mph 97% 0 in 0.00 W/m2 unknown
07:09 46.4 °F 44.6 °F 30.2 in NNW 0.6 mph 1.2 mph 97% 0 in 0.00 W/m2 unknown
07:14 46.4 °F 44.6 °F 30.2 in Calm   1.2 mph 97% 0 in 0.00 W/m2 unknown
07:19 46.4 °F 44.6 °F 30.2 in NNW 0.6 mph 1.2 mph 97% 0 in 0.00 W/m2 unknown
07:24 46.4 °F 44.6 °F 30.2 in NNW 1.2 mph 2.5 mph 97% 0 in 0.00 W/m2 unknown
07:29 46.4 °F 44.6 °F 30.2 in Calm   1.9 mph 97% 0 in 0.00 W/m2 unknown
07:34 46.4 °F 44.6 °F 30.2 in SSW 3.1 mph 3.7 mph 97% 0 in 0.00 W/m2 unknown
07:39 46.4 °F 44.6 °F 30.2 in SSW 1.9 mph 3.7 mph 97% 0 in 0.00 W/m2 unknown
07:44 46.4 °F 44.6 °F 30.2 in SW 1.2 mph 2.5 mph 97% 0 in 0.00 W/m2 unknown
07:49 46.4 °F 44.6 °F 30.2 in SW 1.2 mph 2.5 mph 97% 0 in 0.00 W/m2 unknown
07:54 46.4 °F 44.6 °F 30.2 in WSW 1.2 mph 1.9 mph 97% 0 in 0.00 W/m2 unknown
07:59 46.4 °F 44.6 °F 30.2 in Calm   1.2 mph 97% 0 in 0.00 W/m2 unknown
08:04 46.4 °F 44.6 °F 30.2 in Calm     97% 0 in 0.00 W/m2 unknown
08:09 46.4 °F 44.6 °F 30.2 in Calm     97% 0 in 5.00 W/m2 unknown
08:14 46.4 °F 44.6 °F 30.2 in Calm     97% 0 in 7.00 W/m2 unknown
08:19 46.4 °F 44.6 °F 30.2 in South 1.2 mph 3.1 mph 97% 0 in 7.00 W/m2 unknown
08:24 46.4 °F 44.6 °F 30.2 in South 1.2 mph 3.7 mph 97% 0 in 9.00 W/m2 unknown
08:29 46.4 °F 44.6 °F 30.2 in SSW 1.9 mph 2.5 mph 97% 0 in 11.00 W/m2 unknown
08:34 46.4 °F 44.6 °F 30.2 in SW 2.5 mph 3.7 mph 97% 0 in 12.00 W/m2 unknown
08:39 46.4 °F 44.6 °F 30.2 in SSW 1.9 mph 3.7 mph 97% 0 in 18.00 W/m2 unknown
08:44 46.4 °F 44.6 °F 30.2 in SW 1.9 mph 3.7 mph 97% 0 in 18.00 W/m2 unknown
08:49 46.4 °F 44.6 °F 30.2 in WSW 1.9 mph 3.1 mph 97% 0 in 16.00 W/m2 unknown
08:54 46.4 °F 44.6 °F 30.2 in WSW 3.1 mph 3.7 mph 97% 0 in 16.00 W/m2 unknown
08:59 46.4 °F 44.6 °F 30.2 in SW 2.5 mph 3.7 mph 97% 0 in 16.00 W/m2 unknown
09:04 46.4 °F 44.6 °F 30.2 in WSW 3.1 mph 3.7 mph 97% 0 in 18.00 W/m2 unknown
09:09 46.4 °F 44.6 °F 30.2 in WSW 3.1 mph 3.7 mph 97% 0 in 23.00 W/m2 unknown
09:14 46.4 °F 44.6 °F 30.2 in WSW 2.5 mph 3.7 mph 97% 0 in 28.00 W/m2 unknown
09:19 46.4 °F 44.6 °F 30.2 in WSW 1.9 mph 3.7 mph 97% 0 in 33.00 W/m2 unknown
09:24 46.4 °F 44.6 °F 30.2 in West 2.5 mph 3.7 mph 97% 0 in 37.00 W/m2 unknown
09:29 46.4 °F 44.6 °F 30.2 in WNW 2.5 mph 3.7 mph 97% 0 in 58.00 W/m2 unknown
09:34 46.4 °F 46.4 °F 30.2 in WNW 2.5 mph 3.7 mph 97% 0 in 102.00 W/m2 unknown
09:39 46.4 °F 46.4 °F 30.2 in WNW 3.1 mph 3.7 mph 97% 0 in 102.00 W/m2 unknown
09:44 46.4 °F 46.4 °F 30.2 in WNW 2.5 mph 3.7 mph 97% 0 in 67.00 W/m2 unknown
09:49 46.4 °F 46.4 °F 30.2 in West 1.9 mph 3.7 mph 97% 0 in 114.00 W/m2 unknown
09:54 46.4 °F 46.4 °F 30.2 in West 2.5 mph 3.7 mph 97% 0 in 98.00 W/m2 unknown
09:59 46.4 °F 46.4 °F 30.2 in West 2.5 mph 3.7 mph 97% 0 in 97.00 W/m2 unknown
10:04 46.4 °F 46.4 °F 30.2 in NW 1.9 mph 3.7 mph 97% 0 in 93.00 W/m2 unknown
10:08 46.4 °F 46.4 °F 30.2 in NNW 2.5 mph 3.7 mph 97% 0 in 79.00 W/m2 unknown
10:14 46.4 °F 46.4 °F 30.2 in North 1.9 mph 3.7 mph 97% 0 in 70.00 W/m2 unknown
10:19 46.4 °F 46.4 °F 30.2 in NNW 1.9 mph 3.7 mph 97% 0 in 51.00 W/m2 unknown
10:24 46.4 °F 46.4 °F 30.2 in North 1.2 mph 3.7 mph 97% 0 in 47.00 W/m2 unknown
10:29 46.4 °F 46.4 °F 30.2 in North 1.2 mph 2.5 mph 97% 0 in 35.00 W/m2 unknown
10:34 46.4 °F 46.4 °F 30.2 in ESE 1.2 mph 2.5 mph 97% 0 in 30.00 W/m2 unknown
10:39 46.4 °F 46.4 °F 30.2 in SSW 1.9 mph 3.7 mph 97% 0 in 33.00 W/m2 unknown
10:44 46.4 °F 46.4 °F 30.2 in SSW 3.7 mph 3.7 mph 97% 0 in 46.00 W/m2 unknown
10:49 46.4 °F 46.4 °F 30.2 in SW 3.1 mph 3.7 mph 97% 0 in 114.00 W/m2 unknown
10:54 46.4 °F 46.4 °F 30.2 in West 1.2 mph 3.1 mph 97% 0 in 130.00 W/m2 unknown
10:59 46.4 °F 46.4 °F 30.2 in West 1.2 mph 2.5 mph 97% 0 in 102.00 W/m2 unknown
11:04 48.2 °F 46.4 °F 30.2 in WNW 1.9 mph 3.7 mph 97% 0 in 113.00 W/m2 unknown
11:09 48.2 °F 46.4 °F 30.2 in NW 1.9 mph 3.7 mph 97% 0 in 158.00 W/m2 unknown
11:14 48.2 °F 46.4 °F 30.2 in NW 1.2 mph 3.1 mph 97% 0 in 167.00 W/m2 unknown
11:19 48.2 °F 46.4 °F 30.2 in NW 0.6 mph 1.9 mph 97% 0 in 158.00 W/m2 unknown
11:24 48.2 °F 48.2 °F 30.2 in SSW 1.2 mph 2.5 mph 97% 0 in 341.00 W/m2 unknown
11:29 48.2 °F 48.2 °F 30.2 in South 1.9 mph 3.7 mph 97% 0 in 341.00 W/m2 unknown
11:34 48.2 °F 46.4 °F 30.2 in South 2.5 mph 3.7 mph 96% 0 in 193.00 W/m2 unknown
11:39 48.2 °F 46.4 °F 30.2 in SSW 1.9 mph 3.1 mph 96% 0 in 149.00 W/m2 unknown
11:44 48.2 °F 46.4 °F 30.2 in SSE 1.9 mph 3.7 mph 95% 0 in 163.00 W/m2 unknown
11:49 48.2 °F 48.2 °F 30.2 in SE 1.9 mph 3.1 mph 95% 0 in 148.00 W/m2 unknown
11:54 48.2 °F 48.2 °F 30.2 in SSW 2.5 mph 3.7 mph 95% 0 in 109.00 W/m2 unknown
11:59 48.2 °F 48.2 °F 30.2 in SSW 3.7 mph 5 mph 95% 0 in 58.00 W/m2 unknown
12:04 48.2 °F 46.4 °F 30.2 in SE 1.9 mph 5 mph 95% 0 in 53.00 W/m2 unknown
12:09 48.2 °F 46.4 °F 30.2 in SE 3.1 mph 3.7 mph 94% 0 in 49.00 W/m2 unknown
12:14 48.2 °F 46.4 °F 30.2 in SSE 1.9 mph 3.7 mph 95% 0 in 42.00 W/m2 unknown
12:19 48.2 °F 46.4 °F 30.2 in SSW 3.7 mph 3.7 mph 94% 0 in 37.00 W/m2 unknown
12:24 48.2 °F 46.4 °F 30.2 in SSW 3.1 mph 3.7 mph 94% 0 in 30.00 W/m2 unknown
12:29 48.2 °F 46.4 °F 30.2 in SSW 3.1 mph 3.7 mph 94% 0 in 37.00 W/m2 unknown
12:34 48.2 °F 46.4 °F 30.2 in SSW 3.1 mph 3.7 mph 94% 0 in 51.00 W/m2 unknown
12:39 48.2 °F 46.4 °F 30.2 in SSW 1.2 mph 3.1 mph 94% 0 in 123.00 W/m2 unknown
12:44 48.2 °F 46.4 °F 30.2 in ESE 1.2 mph 2.5 mph 93% 0 in 132.00 W/m2 unknown
12:49 48.2 °F 46.4 °F 30.2 in NNE 1.2 mph 2.5 mph 93% 0 in 134.00 W/m2 unknown
12:54 48.2 °F 46.4 °F 30.2 in East 1.9 mph 3.1 mph 93% 0 in 105.00 W/m2 unknown
12:59 48.2 °F 46.4 °F 30.2 in SSE 1.9 mph 3.7 mph 93% 0 in 77.00 W/m2 unknown
13:04 48.2 °F 46.4 °F 30.2 in South 2.5 mph 3.7 mph 93% 0 in 74.00 W/m2 unknown
13:09 48.2 °F 46.4 °F 30.2 in SSW 3.1 mph 3.7 mph 93% 0 in 58.00 W/m2 unknown
13:14 48.2 °F 46.4 °F 30.2 in SSW 2.5 mph 3.7 mph 93% 0 in 33.00 W/m2 unknown
13:19 48.2 °F 46.4 °F 30.2 in SSW 2.5 mph 3.7 mph 93% 0 in 40.00 W/m2 unknown
13:24 48.2 °F 46.4 °F 30.2 in South 1.9 mph 3.7 mph 94% 0 in 63.00 W/m2 unknown
13:29 48.2 °F 46.4 °F 30.2 in South 2.5 mph 3.7 mph 94% 0 in 79.00 W/m2 unknown
13:34 48.2 °F 46.4 °F 30.2 in SSW 2.5 mph 3.7 mph 94% 0 in 84.00 W/m2 unknown
13:39 48.2 °F 46.4 °F 30.2 in SSW 4.3 mph 5 mph 94% 0 in 69.00 W/m2 unknown
13:44 48.2 °F 46.4 °F 30.2 in SW 4.3 mph 5 mph 94% 0 in 67.00 W/m2 unknown
13:49 48.2 °F 46.4 °F 30.2 in SW 3.7 mph 5 mph 94% 0 in 54.00 W/m2 unknown
13:54 48.2 °F 46.4 °F 30.2 in SW 1.9 mph 3.7 mph 94% 0.01 in 47.00 W/m2 unknown
13:59 48.2 °F 48.2 °F 30.2 in SW 3.1 mph 3.7 mph 95% 0.01 in 46.00 W/m2 unknown
14:04 48.2 °F 48.2 °F 30.2 in WSW 3.1 mph 3.7 mph 95% 0.01 in 46.00 W/m2 unknown
14:09 48.2 °F 48.2 °F 30.2 in West 2.5 mph 3.7 mph 95% 0.01 in 49.00 W/m2 unknown
14:12 48.2 °F 48.2 °F 30.2 in WSW 1.9 mph 3.7 mph 95% 0.01 in 44.00 W/m2 unknown
14:19 48.2 °F 46.4 °F 30.2 in WSW 1.9 mph 2.5 mph 95% 0.02 in 44.00 W/m2 unknown
14:24 48.2 °F 46.4 °F 30.2 in WSW 1.9 mph 2.5 mph 95% 0.02 in 44.00 W/m2 unknown
14:29 48.2 °F 46.4 °F 30.2 in WSW 1.9 mph 3.7 mph 95% 0.02 in 39.00 W/m2 unknown
14:34 48.2 °F 46.4 °F 30.2 in WNW 2.5 mph 3.7 mph 95% 0.02 in 26.00 W/m2 unknown
14:39 48.2 °F 46.4 °F 30.2 in WNW 2.5 mph 3.7 mph 95% 0.02 in 14.00 W/m2 unknown
14:44 48.2 °F 46.4 °F 30.2 in WNW 1.9 mph 3.7 mph 95% 0.02 in 16.00 W/m2 unknown
14:49 48.2 °F 46.4 °F 30.2 in NW 1.2 mph 2.5 mph 95% 0.02 in 16.00 W/m2 unknown
14:54 48.2 °F 46.4 °F 30.2 in NNW 1.9 mph 3.7 mph 95% 0.02 in 16.00 W/m2 unknown
14:59 48.2 °F 46.4 °F 30.2 in NW 1.9 mph 3.7 mph 95% 0.02 in 18.00 W/m2 unknown
15:04 48.2 °F 46.4 °F 30.2 in NNW 1.9 mph 3.1 mph 95% 0.02 in 19.00 W/m2 unknown
15:09 48.2 °F 46.4 °F 30.2 in NNW 1.2 mph 2.5 mph 95% 0.02 in 14.00 W/m2 unknown
15:14 48.2 °F 46.4 °F 30.2 in NNW 1.2 mph 2.5 mph 95% 0.02 in 11.00 W/m2 unknown
15:19 48.2 °F 46.4 °F 30.2 in NNW 1.9 mph 2.5 mph 95% 0.02 in 16.00 W/m2 unknown
15:24 48.2 °F 46.4 °F 30.2 in NNW 1.2 mph 2.5 mph 95% 0.02 in 18.00 W/m2 unknown
15:29 48.2 °F 46.4 °F 30.2 in North 2.5 mph 3.7 mph 95% 0.02 in 18.00 W/m2 unknown
15:34 48.2 °F 46.4 °F 30.2 in NE 2.5 mph 3.7 mph 95% 0.02 in 16.00 W/m2 unknown
15:39 48.2 °F 46.4 °F 30.2 in ENE 2.5 mph 3.7 mph 95% 0.01 in 16.00 W/m2 unknown
15:44 48.2 °F 46.4 °F 30.2 in East 1.9 mph 3.7 mph 95% 0.01 in 14.00 W/m2 unknown
15:49 48.2 °F 46.4 °F 30.2 in East 1.9 mph 3.7 mph 95% 0.01 in 12.00 W/m2 unknown
15:54 48.2 °F 46.4 °F 30.2 in East 1.9 mph 2.5 mph 95% 0.01 in 12.00 W/m2 unknown
15:59 48.2 °F 46.4 °F 30.2 in ENE 2.5 mph 3.7 mph 94% 0.01 in 11.00 W/m2 unknown
16:04 48.2 °F 46.4 °F 30.2 in ENE 3.1 mph 3.7 mph 95% 0.01 in 11.00 W/m2 unknown
16:09 48.2 °F 46.4 °F 30.2 in ENE 3.1 mph 3.7 mph 95% 0.01 in 9.00 W/m2 unknown
16:14 48.2 °F 46.4 °F 30.2 in NE 1.9 mph 3.7 mph 95% 0.01 in 9.00 W/m2 unknown
16:19 48.2 °F 46.4 °F 30.2 in NE 3.1 mph 3.7 mph 95% 0.01 in 5.00 W/m2 unknown
16:24 48.2 °F 46.4 °F 30.2 in NNE 3.1 mph 3.7 mph 95% 0.01 in 5.00 W/m2 unknown
16:29 48.2 °F 46.4 °F 30.2 in NNE 5 mph 6.2 mph 95% 0 in 0.00 W/m2 unknown
16:34 48.2 °F 46.4 °F 30.2 in NE 4.3 mph 5 mph 95% 0 in 0.00 W/m2 unknown
16:39 48.2 °F 46.4 °F 30.2 in ENE 4.3 mph 5 mph 95% 0 in 0.00 W/m2 unknown
16:44 48.2 °F 46.4 °F 30.2 in ENE 1.9 mph 5 mph 95% 0 in 0.00 W/m2 unknown
16:49 48.2 °F 46.4 °F 30.2 in NE 2.5 mph 3.7 mph 95% 0 in 0.00 W/m2 unknown
16:54 48.2 °F 46.4 °F 30.2 in NE 2.5 mph 3.7 mph 95% 0 in 0.00 W/m2 unknown
16:59 48.2 °F 46.4 °F 30.2 in NE 2.5 mph 3.7 mph 99% 0 in 0.00 W/m2 unknown
17:04 48.2 °F 46.4 °F 30.2 in NE 1.2 mph 2.5 mph 99% 0 in 0.00 W/m2 unknown
17:09 48.2 °F 46.4 °F 30.2 in NE 1.2 mph 2.5 mph 99% 0 in 0.00 W/m2 unknown
17:14 48.2 °F 46.4 °F 30.2 in NE 2.5 mph 3.7 mph 99% 0 in 0.00 W/m2 unknown
17:19 48.2 °F 46.4 °F 30.2 in NE 3.7 mph 5 mph 99% 0 in 0.00 W/m2 unknown
17:24 48.2 °F 46.4 °F 30.2 in ENE 3.1 mph 5 mph 95% 0 in 0.00 W/m2 unknown
17:29 48.2 °F 46.4 °F 30.2 in ENE 3.1 mph 5 mph 95% 0.01 in 0.00 W/m2 unknown
17:34 48.2 °F 46.4 °F 30.2 in ENE 1.9 mph 2.5 mph 95% 0.01 in 0.00 W/m2 unknown
17:39 48.2 °F 46.4 °F 30.2 in NE 3.7 mph 5 mph 95% 0.01 in 0.00 W/m2 unknown
17:44 48.2 °F 46.4 °F 30.2 in North 2.5 mph 3.7 mph 95% 0.01 in 0.00 W/m2 unknown
17:49 48.2 °F 46.4 °F 30.2 in NE 3.1 mph 3.7 mph 95% 0.01 in 0.00 W/m2 unknown
17:54 48.2 °F 46.4 °F 30.2 in NE 3.1 mph 3.7 mph 95% 0.01 in 0.00 W/m2 unknown
17:59 48.2 °F 46.4 °F 30.2 in NE 1.9 mph 3.7 mph 95% 0.01 in 0.00 W/m2 unknown
18:04 48.2 °F 46.4 °F 30.2 in NNE 3.7 mph 5 mph 95% 0.02 in 0.00 W/m2 unknown
18:09 48.2 °F 46.4 °F 30.2 in NNE 4.3 mph 6.2 mph 96% 0.02 in 0.00 W/m2 unknown
18:14 48.2 °F 46.4 °F 30.2 in NE 5 mph 6.2 mph 96% 0.02 in 0.00 W/m2 unknown
18:19 48.2 °F 46.4 °F 30.2 in NNE 2.5 mph 3.7 mph 96% 0.03 in 0.00 W/m2 unknown
18:24 48.2 °F 46.4 °F 30.2 in NNE 2.5 mph 3.7 mph 96% 0.03 in 0.00 W/m2 unknown
18:29 48.2 °F 46.4 °F 30.2 in NNE 3.1 mph 3.7 mph 96% 0.04 in 0.00 W/m2 unknown
18:34 48.2 °F 46.4 °F 30.2 in NNE 1.9 mph 3.7 mph 96% 0.05 in 0.00 W/m2 unknown
18:39 48.2 °F 46.4 °F 30.2 in NNE 2.5 mph 3.7 mph 96% 0.05 in 0.00 W/m2 unknown
18:44 48.2 °F 46.4 °F 30.2 in NNE 2.5 mph 3.7 mph 96% 0.05 in 0.00 W/m2 unknown
18:49 48.2 °F 46.4 °F 30.2 in NNE 2.5 mph 3.7 mph 96% 0.05 in 0.00 W/m2 unknown
18:54 48.2 °F 46.4 °F 30.2 in NNE 3.1 mph 3.7 mph 96% 0.06 in 0.00 W/m2 unknown
18:59 48.2 °F 46.4 °F 30.2 in NE 3.7 mph 5 mph 96% 0.06 in 0.00 W/m2 unknown
19:04 48.2 °F 46.4 °F 30.2 in NE 3.1 mph 5 mph 96% 0.06 in 0.00 W/m2 unknown
19:09 48.2 °F 46.4 °F 30.2 in NNE 3.7 mph 3.7 mph 96% 0.07 in 0.00 W/m2 unknown
19:14 48.2 °F 46.4 °F 30.2 in NNE 3.7 mph 6.8 mph 96% 0.08 in 0.00 W/m2 unknown
19:19 48.2 °F 46.4 °F 30.2 in North 4.3 mph 6.8 mph 96% 0.08 in 0.00 W/m2 unknown
19:24 48.2 °F 46.4 °F 30.2 in ENE 5 mph 8.1 mph 96% 0.08 in 0.00 W/m2 unknown
19:29 48.2 °F 46.4 °F 30.2 in NNE 3.1 mph 8.1 mph 96% 0.08 in 0.00 W/m2 unknown
19:34 48.2 °F 46.4 °F 30.2 in NE 3.7 mph 5 mph 96% 0.08 in 0.00 W/m2 unknown
19:39 48.2 °F 46.4 °F 30.2 in NE 3.7 mph 5 mph 96% 0.07 in 0.00 W/m2 unknown
19:44 48.2 °F 46.4 °F 30.2 in ENE 5.6 mph 6.8 mph 96% 0.07 in 0.00 W/m2 unknown
19:49 48.2 °F 46.4 °F 30.2 in ENE 5.6 mph 6.8 mph 96% 0.07 in 0.00 W/m2 unknown
19:54 48.2 °F 46.4 °F 30.2 in ENE 3.1 mph 5 mph 96% 0.06 in 0.00 W/m2 unknown
19:59 48.2 °F 46.4 °F 30.2 in East 1.9 mph 5 mph 96% 0.06 in 0.00 W/m2 unknown
20:04 48.2 °F 46.4 °F 30.2 in ESE 1.9 mph 2.5 mph 96% 0.06 in 0.00 W/m2 unknown
20:09 48.2 °F 46.4 °F 30.2 in ESE 1.2 mph 3.1 mph 96% 0.06 in 0.00 W/m2 unknown
20:14 48.2 °F 46.4 °F 30.2 in East 1.2 mph 3.7 mph 96% 0.06 in 0.00 W/m2 unknown
20:19 48.2 °F 46.4 °F 30.2 in East 4.3 mph 6.2 mph 96% 0.06 in 0.00 W/m2 unknown
20:24 48.2 °F 46.4 °F 30.2 in ENE 4.3 mph 6.2 mph 96% 0.06 in 0.00 W/m2 unknown
20:29 46.4 °F 46.4 °F 30.2 in ENE 5 mph 6.2 mph 96% 0.06 in 0.00 W/m2 unknown
20:34 46.4 °F 46.4 °F 30.2 in East 5 mph 6.2 mph 96% 0.06 in 0.00 W/m2 unknown
20:39 46.4 °F 46.4 °F 30.2 in ENE 3.1 mph 6.2 mph 96% 0.06 in 0.00 W/m2 unknown
20:44 46.4 °F 46.4 °F 30.2 in NE 3.1 mph 5 mph 96% 0.06 in 0.00 W/m2 unknown
20:49 46.4 °F 46.4 °F 30.2 in ENE 3.1 mph 5 mph 96% 0.06 in 0.00 W/m2 unknown
20:54 46.4 °F 46.4 °F 30.2 in East 3.1 mph 5 mph 96% 0.05 in 0.00 W/m2 unknown
20:59 46.4 °F 46.4 °F 30.2 in East 3.7 mph 6.2 mph 96% 0.05 in 0.00 W/m2 unknown
21:04 46.4 °F 46.4 °F 30.2 in ENE 3.7 mph 6.2 mph 96% 0.05 in 0.00 W/m2 unknown
21:09 46.4 °F 46.4 °F 30.2 in East 3.7 mph 5 mph 96% 0.04 in 0.00 W/m2 unknown
21:14 46.4 °F 46.4 °F 30.2 in East 4.3 mph 5 mph 96% 0.04 in 0.00 W/m2 unknown
21:19 46.4 °F 46.4 °F 30.2 in East 3.1 mph 6.2 mph 97% 0.04 in 0.00 W/m2 unknown
21:24 46.4 °F 46.4 °F 30.2 in East 2.5 mph 6.2 mph 96% 0.04 in 0.00 W/m2 unknown
21:29 46.4 °F 46.4 °F 30.2 in ENE 3.1 mph 5 mph 97% 0.03 in 0.00 W/m2 unknown
21:34 46.4 °F 46.4 °F 30.2 in ENE 3.1 mph 3.7 mph 97% 0.02 in 0.00 W/m2 unknown
21:39 46.4 °F 46.4 °F 30.2 in ENE 3.1 mph 5 mph 97% 0.02 in 0.00 W/m2 unknown
21:44 46.4 °F 46.4 °F 30.2 in NE 2.5 mph 5 mph 97% 0.01 in 0.00 W/m2 unknown
21:49 46.4 °F 46.4 °F 30.2 in NE 2.5 mph 3.7 mph 97% 0.01 in 0.00 W/m2 unknown
21:54 46.4 °F 46.4 °F 30.2 in North 2.5 mph 3.7 mph 97% 0 in 0.00 W/m2 unknown
21:59 46.4 °F 46.4 °F 30.2 in NNE 3.7 mph 6.2 mph 97% 0 in 0.00 W/m2 unknown
22:04 46.4 °F 46.4 °F 30.2 in ENE 5.6 mph 8.1 mph 97% 0 in 0.00 W/m2 unknown
22:09 46.4 °F 46.4 °F 30.2 in NE 6.2 mph 8.1 mph 97% 0 in 0.00 W/m2 unknown
22:14 46.4 °F 46.4 °F 30.2 in ENE 4.3 mph 8.1 mph 96% 0 in 0.00 W/m2 unknown
22:19 46.4 °F 46.4 °F 30.2 in ENE 5 mph 6.8 mph 96% 0 in 0.00 W/m2 unknown
22:24 46.4 °F 46.4 °F 30.2 in ENE 3.7 mph 5 mph 97% 0 in 0.00 W/m2 unknown
22:29 46.4 °F 46.4 °F 30.2 in ENE 3.7 mph 6.2 mph 97% 0 in 0.00 W/m2 unknown
22:34 46.4 °F 46.4 °F 30.2 in ENE 3.1 mph 6.2 mph 97% 0 in 0.00 W/m2 unknown
22:39 46.4 °F 46.4 °F 30.2 in ENE 3.1 mph 6.2 mph 97% 0 in 0.00 W/m2 unknown
22:44 46.4 °F 44.6 °F 30.2 in ENE 3.7 mph 5 mph 97% 0 in 0.00 W/m2 unknown
22:49 46.4 °F 44.6 °F 30.2 in ENE 3.7 mph 5 mph 97% 0 in 0.00 W/m2 unknown
22:54 46.4 °F 44.6 °F 30.2 in NE 2.5 mph 5 mph 97% 0 in 0.00 W/m2 unknown
22:59 46.4 °F 44.6 °F 30.2 in NE 3.1 mph 3.7 mph 97% 0 in 0.00 W/m2 unknown
23:04 46.4 °F 44.6 °F 30.2 in NE 3.1 mph 3.7 mph 97% 0 in 0.00 W/m2 unknown
23:09 46.4 °F 44.6 °F 30.2 in ENE 2.5 mph 3.7 mph 97% 0 in 0.00 W/m2 unknown
23:14 46.4 °F 44.6 °F 30.2 in NE 3.1 mph 3.7 mph 97% 0 in 0.00 W/m2 unknown
23:19 46.4 °F 44.6 °F 30.2 in NE 3.1 mph 5 mph 97% 0 in 0.00 W/m2 unknown
23:24 46.4 °F 44.6 °F 30.2 in NE 3.1 mph 5 mph 97% 0 in 0.00 W/m2 unknown
23:29 46.4 °F 44.6 °F 30.2 in NE 3.1 mph 3.7 mph 97% 0 in 0.00 W/m2 unknown
23:34 46.4 °F 44.6 °F 30.2 in NE 3.1 mph 3.7 mph 97% 0 in 0.00 W/m2 unknown
23:39 46.4 °F 44.6 °F 30.2 in ENE 3.1 mph 3.7 mph 97% 0 in 0.00 W/m2 unknown
23:44 46.4 °F 44.6 °F 30.2 in NE 3.7 mph 5 mph 97% 0 in 0.00 W/m2 unknown
23:49 46.4 °F 44.6 °F 30.2 in ENE 3.7 mph 5 mph 97% 0 in 0.00 W/m2 unknown
23:54 46.4 °F 44.6 °F 30.2 in ENE 3.7 mph 5 mph 97% 0 in 0.00 W/m2 unknown
23:59 46.4 °F 44.6 °F 30.2 in ENE 3.7 mph 5 mph 97% 0 in 0.00 W/m2 unknown
Stazione Meteorologica MeteoMincio Rivalta s/M (MN)
Con i complimenti di Weather Underground - 4 mb



GLOSSARIO METEOROLOGICO
Punto di Rugiada (Dewpoint)
Il valore di temperatura (in °C) a cui l'aria dovrebbe essere raffreddata (a pressione costante) per raggiungere il 100% di umidità relativa, ovvero, per saturarla di vapore.
Share

Non seguire questo link o sarai bannato dal sito!